www.pogodaiklimat.ru

Погода и климат >> Архив погоды >> Россия >> Адыгея >> Даховская


ПОГОДА в Даховской

  • Прогноз погоды в Даховской
  • Монитор погоды в Даховской

АРХИВ ПОГОДЫ в Даховской

Время (UTC), дата Ветер
(напр.,м/с)
 
Видим.   Явления Облачность Т
(С)
Тd
(С)
f
(%)
Тe
(С)
Тes
(С)
Комфортность P
(гПа)
Po
(гПа)
Тmin
(С)
Tmax
(С)
R
(мм)
R24
(мм)
S
(см)
21 19.03 ЮВ 1 50 км ясно +1.5 -0.6 86 -0 -0 1022.8 961.1
00 20.03 Ю 1 50 км ясно +0.1 +0.1 100 -2 -2 1023.1 961.1
03 20.03 ЮВ 1 50 км ясно -1.3 -1.3 100 -4 -4 1023.6 961.3 -1.4
06 20.03 СВ 1 50 км ясно +4.6 -0.0 72 +4 +9 1021.7 960.8 -1.7
09 20.03 С 3 50 км ясно +14.4 +1.8 42 +14 +23 1018.1 959.4
12 20.03 С 4 50 км ясно +16.2 +1.8 38 +16 +20 1017.3 959.0
15 20.03 СЗ 2 50 км ясно +15.1 +0.6 37 +15 +15 1017.7 959.2 +17.0
18 20.03 штиль 0 50 км ясно +6.0 +1.7 74 +5 +5 1021.4 960.8
21 20.03 штиль 0 50 км ясно +2.8 +0.4 84 +2 +2 1022.6 961.2
00 21.03 ЮВ 1 50 км ясно +1.2 +1.0 99 -1 -1 1023.6 961.8
03 21.03 В 1 50 км 8/0
[Ac cast Ci]
+0.8 +0.8 100 -1 -1 1024.4 962.5 -0.3
06 21.03 СВ 1 50 км ясно +5.3 +1.3 75 +4 +10 1024.2 963.3
09 21.03 С 4 50 км 4/0
[Ac lent]
+11.0 +2.5 56 +9 +14 1022.5 962.9
12 21.03 С 4 50 км 8/8 1000 м
[Sc]
+10.7 +0.9 51 +9 +10 1022.4 962.7
15 21.03 СЗ 1 50 км 10/10 1000 м
[Sc]
+8.6 -0.1 54 +8 +8 1023.7 963.5 +11.4
18 21.03 С 1 20 км 10/10 1000 м
[Sc]
+7.4 -0.3 58 +7 +7 1024.6 964.1
21 21.03 С 1 20 км 10/10 1000 м
[Sc]
+5.9 -1.0 61 +5 +5 1024.8 964.0
00 22.03 С 2 20 км 10/10 1000 м
[Sc]
+4.8 +0.7 75 +2 +2 1024.9 963.8
03 22.03 СЗ 1 20 км 10/10 1000 м
[Sc]
+4.5 +1.5 81 +3 +3 1024.4 963.3 +4.3
06 22.03 Ю 1 20 км {ливн. осадки} 10/10 1000 м
[Cb cap]
+5.0 -1.5 63 +4 +4 1024.9 963.9 +3.4
09 22.03 З 3 50 км 8/8 1000 м
[Sc]
+8.2 -3.1 45 +6 +8 1023.2 962.9
12 22.03 З 4
{12}
50 км 8/8 1000 м
[Sc]
+10.7 -5.2 32 +9 +10 1021.2 961.5
15 22.03 З 2
{10}
50 км 10/3 1000 м
[Sc Cs]
+8.0 -5.6 38 +7 +7 1020.6 960.4 +10.9 0.5
18 22.03 ЮВ 1 50 км 10/10 1000 м
[Sc]
+5.8 -3.7 50 +5 +5 1021.4 960.7
21 22.03 Ю 4
{12}
50 км 10/10 1000 м
[Sc]
+6.0 -4.8 46 +3 +3 1018.1 957.6
00 23.03 Ю 4
{15}
50 км 9/9 1000 м
[Sc]
+6.3 -5.6 42 +3 +3 1015.7 955.4
03 23.03 ЮЗ 3
{19}
50 км 10/10 1000 м
[Cb cap]
+5.3 -4.2 50 +3 +3 1013.2 953.0 +5.2
06 23.03 С 4
{15}
20 км 10/10 1000 м
[Sc]
+2.7 -0.7 78 -2 -2 1015.5 954.6 +2.7
09 23.03 С 2
{10}
4000 м слаб. ливневой снег 10/10 600 м
[Cb cap]
+0.6 +0.1 96 -3 -3 1016.2 954.7
12 23.03 СВ 1 4000 м ливневой снег 10/10 600 м
[Cb cap]
-0.8 -0.8 100 -3 -3 1016.3 954.6
15 23.03 В 1 20 км в посл. час ливневой снег 10/10 300 м
[Cb cap]
-0.5 -0.9 97 -3 -3 1016.5 954.8 +6.1 7
18 23.03 штиль 0 20 км {ливн. осадки} 8/8 600 м
[Cb cap]
-1.8 -1.8 100 -3 -3 1017.6 955.6
21 23.03 штиль 0 20 км ясно -3.9 -3.9 100 -5 -5 1018.9 956.2
00 24.03 штиль 0 20 км 4/0
[Ci]
-6.0 -6.0 100 -7 -7 1019.3 956.1
03 24.03 штиль 0 4000 м дымка 8/0
[Cs]
-6.1 -6.1 100 -7 -7 1020.0 956.8 -7.5 0.7 10
06 24.03 штиль 0 20 км в посл. час туман 6/6 1000 м
[Sc]
-3.9 -3.9 100 -5 -2 1019.7 957.0
09 24.03 С 3 50 км 4/4 1000 м
[Sc]
+3.9 -1.9 66 +1 +7 1016.7 955.9
12 24.03 С 2 50 км 9/9 1000 м
[Cb cap]
+4.0 -2.1 64 +2 +2 1016.0 955.3
15 24.03 СЗ 2
{10}
50 км 4/4 1000 м
[Sc]
+3.4 -3.4 61 +1 +1 1017.1 956.1 +4.9
18 24.03 С 2 50 км ясно +0.2 -4.1 73 -3 -3 1019.3 957.6
21 24.03 штиль 0 50 км ясно -0.6 -4.7 74 -2 -2 1019.9 957.9
00 25.03 штиль 0 50 км ясно -3.2 -5.1 87 -4 -4 1021.0 958.4
03 25.03 штиль 0 50 км 3/0
[Ac lent]
-5.5 -5.5 100 -7 -7 1021.6 958.4 -5.5
06 25.03 В 1 50 км ясно +1.2 -4.5 66 -0 +6 1019.4 957.9 -5.7
09 25.03 ЮЗ 1 50 км ясно +6.8 -5.3 42 +7 +21 опасность
простуды
1016.5 956.3
12 25.03 С 2 50 км ясно +9.9 -5.1 34 +9 +16 1014.8 955.3
15 25.03 С 3 50 км 1/0
[Ac cast]
+8.4 -4.5 40 +6 +7 1014.7 955.0 +10.1
18 25.03 штиль 0 50 км 3/0
[Ac cast]
+0.3 -3.3 77 -1 -1 1017.2 955.6
21 25.03 ЮВ 1 50 км ясно -2.5 -4.0 89 -5 -5 1017.5 955.3
00 26.03 ЮВ 1 50 км ясно -2.2 -3.2 93 -5 -5 1017.3 955.1
03 26.03 В 1 50 км ясно -3.6 -3.7 99 -6 -6 1017.7 955.3 -3.7
06 26.03 штиль 0 50 км ясно +3.8 -3.4 59 +3 +11 опасность
простуды
1015.7 955.0 -3.7
09 26.03 С 3 50 км ясно +12.4 -3.3 33 +11 +22 опасность
простуды
1012.3 953.5
12 26.03 С 2 50 км ясно +13.9 -4.6 27 +14 +21 1011.2 952.7
15 26.03 СЗ 2 50 км ясно +12.2 -1.1 40 +12 +12 1011.3 952.6 +14.7
18 26.03 ЮЗ 1 50 км ясно +3.6 -0.7 73 +2 +2 1014.9 954.2

 

Местоположение метеостанции Даховская (Адыгея, Россия): широта 44.67 долгота 40.75 высота над уровнем моря 264 м.

В архиве по умолчанию представлена погода в Даховской за последнюю неделю. Архивные данные за месяц целиком и за предыдущие месяцы, начиная с января 2011 года, Вы можете получить, выбрав интересующий диапазон дат из раскрывающегося списка и нажав кнопку "Ввод!".


*Определитесь, кто Вы:
робот инопланетянин человек

Внимание! Время в таблицах - всемирное. Для получения местного времени необходимо прибавить поправку, которая равна 3 ч.

Смотрите также архив погоды в соседних городах и на ближайших метеорологических станциях:

Погода в Дондуковской (Адыгея, Россия) (38 км)
Погода в Армавире (Краснодарский край, Россия) (45 км)
Погода в Майкопе (Адыгея, Россия) (53 км)
Погода в Шунтуке (Адыгея, Россия) (55 км)
Погода в Псебае (Краснодарский край, Россия) (60 км)
Погода в Отрадной (Краснодарский край, Россия) (65 км)
Погода в Белореченске (Краснодарский край, Россия) (68 км)
Погода в Кропоткине (Краснодарский край, Россия) (86 км)
Погода в Гузерипле (Адыгея, Россия) (89 км)
Погода в Невинномысске (Ставропольский край, Россия) (97 км)

Пояснения к столбцам:

Ветер - указаны скорость ветра в м/с - средняя за 10 мин, порывы в срок и между сроками (в фигурных скобках) и направление, откуда дует ветер: С - северный, СВ - северо-восточный, В - восточный, ЮВ - юго-восточный, Ю - южный, ЮЗ - юго-западный, З - западный, СЗ - северо-западный.
Видимость - горизонтальная дальность видимости в метрах или километрах. При видимости от 1 до 10 км при отсутствии осадков обычно наблюдается дымка, при ухудшении видимости до 1 км и менее - туман. В сухую погоду видимость может ухудшаться дымом, пылью или мглою.
Явления - указаны атмосферные явления, наблюдавшиеся в срок или в последний час перед сроком; фигурными скобками обозначены явления, наблюдавшиеся между сроками (за 1-3 часа до срока); квадратными скобками обозначены град или гололедные отложения с указанием их диаметра в мм.
Облачность - указаны через наклонную черту общая и нижняя облачность в баллах и высота нижней границы облаков в метрах; квадратными скобками обозначены формы облаков: Ci - перистые, Cs - перисто-слоистые, Cc - перисто-кучевые, Ac - высококучевые, As - высокослоистые, Sc - слоисто-кучевые, Ns - слоисто-дождевые, Cu - кучевые, Cb - кучево-дождевые. Подробнее классификацию облаков см. в Атласе облаков (PDF).
T - Температура воздуха - температура, измеренная на высоте 2 м над землей.
Td - Температура точки росы - температура, при понижении до которой содержащийся в воздухе водяной пар достигнет насыщения.
f - Относительная влажность воздуха - влажноcть воздуха, измеренная на высоте 2 м над землей.
Te - Эффективная температура - температура, которую ощущает одетый по сезону человек в тени. Характеристика душности погоды. При расчете учитывается влияние влажности воздуха и скорости ветра на теплоощущения человека.
Tes - Эффективная температура на солнце - температура, которую ощущает человек, с поправкой на солнечный нагрев. Характеристика знойности погоды. Зависит от высоты солнца над горизонтом, облачности и скорости ветра. Ночью, в пасмурную погоду, а также при ветре 12 м/с и более поправка равна нулю.
P - Атмосферное давление - приведенное к уровню моря атмосферное давление.
Po - Атмосферное давление - измеренное на уровне метеостанции атмосферное давление.
Tmin - Минимальная температура - минимум температуры воздуха на высоте 2 м над землей.
Tmax - Максимальная температура - максимум температуры воздуха на высоте 2 м над землей.
R - Количество осадков - Количество выпавших осадков за период времени, мм. При наведении курсора мыши на число - период времени, за который выпало указанное количество осадков.
R24 - Количество осадков - Количество выпавших осадков за 24 часа, мм.
S - Снежный покров - Высота снежного покрова, см. При наведении курсора мыши на число - состояние снежного покрова и степень покрытия местности в баллах.